Miscellaneous Local Product
Issued by NWS Hastings, NE

Home | Current Version | Previous Version | Graphics & Text | Print | Product List | Glossary On
Versions: 1 2 3 4 5 6 7 8 9 10 11 12 13 14 15 16 17 18 19 20 21 22 23 24 25 26 27 28 29 30 31 32 33 34 35 36 37 38 39 40 41 42 43 44 45 46 47 48 49 50
688
AXUS43 KGID 252302
MISGRI

GID CWA HOURLY WEATHER ROUNDUP
NATIONAL WEATHER SERVICE HASTINGS NE
600 PM CDT SAT MAR 25 2017

NOTE: "FAIR" INDICATES FEW OR NO CLOUDS BELOW 12,000 FEET WITH NO
SIGNIFICANT WEATHER AND/OR OBSTRUCTIONS TO VISIBILITY.

...SOUTH CENTRAL NEBRASKA...

CITY           SKY/WX    TMP DP  RH WIND       PRES   REMARKS
GRAND ISLAND   CLOUDY    40  40 100 N10       29.94F WCI  33
HASTINGS       CLOUDY    41  38  89 N9        29.94S
KEARNEY        CLOUDY    43  37  81 NE7       29.93F
ORD            CLOUDY    43  38  82 E9        29.92F
YORK           CLOUDY    39  39 100 N12       29.94S FOG     WCI  32
AURORA         CLOUDY    39  39  98 N10       29.94S FOG     WCI  32
LEXINGTON      MOSUNNY   50  42  75 E10       29.91S
HOLDREGE       CLOUDY    44  40  88 NE10      29.91F
HEBRON         CLOUDY    41  38  91 N9        29.93S FOG

...NEBRASKA PANHANDLE...

CITY           SKY/WX    TMP DP  RH WIND       PRES   REMARKS
CHADRON        CLOUDY    68  30  24 CALM      29.79F
ALLIANCE       CLOUDY    64  29  26 S6        29.83F
SCOTTSBLUFF    CLOUDY    67  27  22 SE7       29.82S
SIDNEY         CLOUDY    61  30  31 S7        29.87F

...WESTERN AND NORTH CENTRAL NEBRASKA...

CITY           SKY/WX    TMP DP  RH WIND       PRES   REMARKS
VALENTINE      SUNNY     62  17  17 SE7       29.88S
AINSWORTH      SUNNY     57  37  48 E10       29.90S
ONEILL         CLOUDY    40  38  93 E9        29.96S WCI  34
BROKEN BOW     MOSUNNY   51  43  74 E12       29.90F
IMPERIAL       CLOUDY    59  26  28 SE5       29.88F
NORTH PLATTE   SUNNY     64  22  20 E5        29.86F
MCCOOK         SUNNY     63  33  32 E9        29.86F

...EASTERN NEBRASKA...

CITY           SKY/WX    TMP DP  RH WIND       PRES   REMARKS
NORFOLK        CLOUDY    39  37  92 N10       29.95F FOG     WCI  32
SO SIOUX CITY  CLOUDY    41  38  89 NE10      29.97S
TEKAMAH        LGT RAIN  42  39  89 N12       29.94F
COLUMBUS       CLOUDY    39  36  87 N12       29.96S WCI  32
ALBION         CLOUDY    41  38  89 NE8       29.95S FOG
OMAHA EPPLEY   CLOUDY    43  37  79 N14       29.93R
OFFUTT AFB     CLOUDY    43  39  86 N9        29.92R
MILLARD        CLOUDY    44  41  89 N6        29.93S
LINCOLN        CLOUDY    42  39  89 N12       29.94S
NEBRASKA CITY  CLOUDY    42  42  99 NE10      29.90R FOG
BEATRICE       CLOUDY    42  40  94 N13       29.92S
FALLS CITY     CLOUDY    43  41  93 N10       29.89S

...NORTHERN KANSAS...

CITY           SKY/WX    TMP DP  RH WIND       PRES   REMARKS
GOODLAND       CLOUDY    59  26  28 S8        29.89F
HILL CITY      SUNNY     54  42  64 E9        29.91S
NORTON         CLEAR     54  39  58 NE9       29.89S
PHILLIPSBURG   CLOUDY    48  39  71 E8        29.92S
HAYS             N/A     51  40  65 N7        29.91F
RUSSELL        CLOUDY    50  39  66 N10       29.90F
CONCORDIA      CLOUDY    42  41  96 N12       29.92F
SALINA         CLOUDY    45  40  82 N13       29.92F
TOPEKA         CLOUDY    47  46  97 N9        29.88S



USA.gov is the U.S. government's official web portal to all federal, state and local government web resources and services.